Theta_e
356 357 358 356 355 353 352 353 353 356 359 359 360 360 359 360 360 360 360 361 361 363 365 364 362 364 365 364 362 361 362 361 361 361 359 358 357 356 357 356 354 355
357 356 357 356 356 354 353 353 352 353 356 359 359 359 358 358 358 358 360 361 360 361 363 364 363 364 364 364 363 362 364 363 362 361 359 359 359 356 357 357 355 356
358 357 357 356 354 354 353 352 353 353 353 356 358 359 359 357 357 358 358 359 360 360 362 363 364 364 363 366 367 364 366 366 362 361 361 360 359 358 357 356 354 355
358 357 356 355 351 352 352 351 353 353 352 353 355 357 358 356 356 358 358 358 358 358 360 360 363 363 362 366 367 363 365 367 363 364 364 362 361 360 358 357 355 355
359 356 356 354 351 351 352 351 351 352 351 351 352 354 355 355 355 356 357 358 357 356 357 358 360 362 363 364 364 362 364 365 363 364 365 364 363 361 358 358 357 356
362 359 355 354 352 351 352 352 352 351 349 350 350 351 353 355 355 355 355 357 356 355 354 355 358 359 359 361 362 362 361 359 359 363 363 362 361 358 358 361 359 358
363 361 357 353 352 352 352 352 352 352 350 348 349 350 350 353 356 355 355 355 354 353 352 352 355 356 356 358 360 361 360 357 359 363 363 362 360 358 360 363 361 359
362 362 360 355 351 351 352 352 353 354 352 348 348 350 349 350 353 354 354 355 354 353 352 352 354 356 355 356 357 359 359 357 357 362 364 363 361 361 361 361 362 360
361 361 360 357 351 349 349 349 352 354 354 351 349 349 349 350 350 351 353 355 355 353 353 354 354 356 356 355 355 357 358 357 355 357 360 360 359 359 359 360 361 361
361 359 358 357 352 348 347 347 348 350 352 354 351 346 348 349 350 349 351 355 355 354 354 354 355 357 357 355 355 356 357 357 355 356 356 357 357 357 357 357 358 359
361 358 355 355 353 348 347 346 346 347 348 352 351 348 345 348 351 351 350 354 356 355 355 356 356 356 356 356 354 354 355 355 354 354 354 355 354 354 355 355 356 356
361 359 355 355 354 349 346 346 344 343 345 348 350 348 346 345 349 351 351 353 356 356 355 356 356 357 356 357 354 351 353 353 352 351 352 353 353 353 353 354 354 354
361 360 357 354 354 352 348 346 345 344 343 345 347 349 347 344 345 350 352 352 355 357 355 355 357 357 356 357 356 351 350 351 350 349 349 351 351 350 350 350 351 352
361 360 359 356 354 354 352 349 346 344 344 343 344 346 348 345 343 345 350 351 353 356 354 354 356 358 357 357 357 355 350 349 351 349 348 349 349 347 347 348 347 348
361 360 360 359 357 356 355 353 349 346 346 344 344 345 346 345 343 342 345 349 351 355 354 352 353 357 358 356 358 357 352 349 350 350 348 347 347 347 346 346 346 345
360 360 360 360 360 359 359 358 354 349 347 346 346 346 345 346 344 343 343 345 349 352 354 352 349 351 355 355 355 356 354 349 347 348 349 348 347 347 346 344 343 343
359 360 361 361 361 361 361 361 359 354 350 348 348 348 348 347 347 346 343 342 345 348 351 352 348 347 350 352 353 352 353 351 347 346 347 349 349 348 348 346 343 342
357 358 360 361 361 362 362 362 362 359 356 354 351 351 352 351 351 350 347 344 342 344 348 350 349 346 346 348 349 347 346 347 346 345 344 347 349 350 349 348 345 343
357 357 359 361 361 362 363 363 363 362 360 356 355 354 354 355 355 353 352 349 346 343 343 345 347 347 346 346 347 345 341 340 342 343 342 343 347 349 350 350 348 347
354 355 357 360 361 361 363 363 363 363 361 358 356 356 357 358 358 357 357 355 352 348 346 345 344 345 346 346 346 346 343 340 340 342 341 340 343 345 348 350 351 352
356 357 357 359 359 359 360 360 361 362 362 359 357 356 357 358 359 358 358 358 357 355 353 350 347 345 347 347 346 346 345 343 343 343 342 340 340 340 343 345 349 352
356 358 359 359 359 359 360 359 359 362 362 361 359 356 356 357 358 360 359 358 358 358 357 354 351 349 348 348 347 346 346 346 345 346 346 345 343 342 342 342 345 348
352 354 357 359 359 359 359 359 360 360 360 361 360 357 356 355 357 358 359 358 358 359 359 357 355 353 351 349 349 348 347 347 347 348 351 350 349 348 347 346 346 347
348 351 353 356 358 359 358 357 358 358 359 359 359 357 356 354 355 356 358 359 358 358 359 358 357 356 354 352 351 350 349 348 347 349 352 352 353 354 353 351 351 350
346 348 351 353 355 357 356 353 352 354 355 357 356 356 357 356 355 354 355 357 357 358 358 358 358 357 356 354 352 352 351 349 348 350 353 353 354 355 355 355 355 353
343 345 348 350 352 355 354 353 352 352 353 353 353 354 353 355 356 356 355 355 355 357 357 357 357 358 356 356 354 353 352 350 349 352 354 353 355 356 356 357 357 356
Wind_Speed
17 16 15 14 13 12 12 12 11 11 10 10 9 9 9 8 8 8 8 8 8 8 7 7 6 5 5 4 5 4 4 5 5 6 7 7 7 6 5 5 4 3
18 17 16 15 14 14 13 12 12 12 12 11 9 9 9 10 9 9 8 8 8 8 8 7 7 7 6 5 6 6 5 5 5 6 7 7 6 6 6 6 5 5
19 18 17 16 16 15 15 13 12 12 12 12 11 10 10 11 11 10 9 9 8 8 8 8 8 8 7 6 6 6 6 6 6 6 6 6 7 6 6 7 7 7
21 20 19 18 17 16 15 15 14 13 13 13 12 12 11 10 11 11 10 10 9 9 8 9 8 8 8 8 7 7 7 7 7 6 6 7 7 6 6 6 7 6
23 22 20 19 17 16 16 16 16 15 14 14 13 13 12 11 12 12 11 11 10 10 9 10 9 9 9 9 9 8 7 7 8 7 7 7 6 7 7 6 6 6
23 22 21 20 18 17 17 17 17 16 15 15 14 14 14 13 13 12 12 12 11 11 11 11 11 11 11 10 10 9 8 8 8 8 8 7 7 7 7 6 6 7
22 22 22 21 20 19 18 17 17 17 16 15 15 15 15 15 15 14 13 13 12 12 12 12 12 12 11 11 11 10 10 9 9 9 9 9 8 9 7 6 6 7
21 22 21 21 21 20 20 19 18 18 17 16 16 16 16 16 16 16 15 14 13 12 12 12 12 12 12 12 12 11 11 11 10 10 10 9 9 9 9 8 8 8
21 20 21 21 21 21 21 20 19 18 18 18 18 17 17 17 16 17 16 16 15 14 13 13 13 13 13 13 12 12 12 12 11 11 11 11 10 10 10 10 9 10
21 21 20 21 21 20 21 21 21 20 19 19 19 18 18 18 17 17 17 17 16 16 16 15 14 14 14 13 13 13 13 13 12 11 11 11 11 11 11 11 11 11
22 21 21 21 21 20 20 21 21 21 21 20 20 19 19 19 18 18 18 18 18 18 18 17 17 16 15 15 15 14 14 14 13 13 12 12 12 12 12 12 12 12
21 21 21 22 21 20 20 20 20 21 21 21 21 20 20 20 20 19 19 20 20 19 19 19 19 18 17 16 16 16 15 15 14 14 13 13 12 12 12 13 13 13
20 21 21 21 21 21 20 20 20 20 21 21 21 21 21 21 21 21 21 21 22 21 21 21 21 20 19 18 17 17 17 16 16 15 14 14 13 13 13 14 14 14
19 19 20 20 21 22 21 21 20 20 21 21 21 22 22 22 22 22 21 21 22 23 22 21 22 21 21 20 19 19 18 17 17 16 16 15 15 15 15 14 14 14
16 17 18 19 20 21 22 22 21 21 21 21 21 22 22 22 22 22 22 22 22 23 23 22 22 22 22 22 21 21 20 20 18 18 18 17 16 16 16 16 16 16
15 15 16 17 19 20 21 21 22 22 22 22 22 22 21 21 22 22 23 23 23 23 23 23 23 23 24 25 25 23 22 22 21 20 19 19 18 18 18 18 17 17
13 14 15 16 17 19 20 20 21 22 22 23 23 23 22 21 22 22 23 23 23 23 23 23 24 24 26 28 29 28 25 23 22 22 21 21 20 20 20 20 19 19
14 14 15 16 16 17 19 19 19 19 20 22 23 23 23 23 22 22 23 23 23 23 24 24 24 25 27 30 31 32 31 27 23 23 22 22 22 22 22 21 21 21
14 15 15 16 17 18 18 19 19 19 20 22 23 23 23 23 23 23 23 23 24 24 24 24 24 25 27 30 32 33 34 32 28 24 24 24 23 23 23 23 22 22
11 15 16 17 18 19 19 19 20 20 21 22 23 23 24 24 24 24 24 24 25 25 25 25 24 25 27 30 33 33 34 35 33 28 26 26 25 24 24 23 23 23
9 12 14 16 18 19 20 21 22 22 22 23 23 24 24 24 25 25 25 25 25 25 25 26 27 26 27 29 31 33 34 34 34 31 27 27 27 27 27 26 24 23
11 11 11 12 15 19 21 23 24 24 23 23 22 23 24 24 24 24 25 25 26 26 26 27 28 29 30 30 31 32 32 33 35 34 29 27 27 28 29 30 28 27
15 14 13 12 13 17 22 25 26 26 25 23 22 21 23 24 24 23 23 24 25 26 26 27 27 29 31 34 34 34 33 34 36 34 29 27 27 27 27 28 28 29
16 15 15 14 14 15 19 21 21 22 21 21 21 21 21 22 23 23 23 23 24 25 26 27 26 28 31 34 36 37 36 37 37 32 27 25 26 26 26 26 28 30
16 16 16 16 17 16 15 15 18 20 18 15 15 17 18 18 20 21 22 23 24 24 26 27 26 27 29 32 35 37 37 38 38 32 26 25 25 24 24 25 26 29
16 17 17 17 17 17 14 12 15 19 18 16 15 16 17 17 17 19 22 24 25 25 26 27 27 27 29 31 34 36 37 39 38 31 26 25 24 23 23 23 24 26
Wind_Direction
193 193 194 197 197 199 199 198 198 197 194 191 191 190 188 185 183 180 177 175 177 177 175 176 182 186 187 188 191 192 193 199 198 194 200 208 213 222 220 215 224 234
194 194 195 197 198 199 200 201 200 198 198 196 191 188 189 187 185 185 184 182 182 183 183 184 185 187 192 192 194 196 197 203 205 194 198 209 217 222 224 221 219 219
194 195 196 198 199 200 200 200 201 201 201 199 195 191 189 188 187 188 189 189 191 192 189 190 191 191 195 195 193 200 201 202 207 198 195 209 220 227 228 226 223 216
195 196 198 201 202 200 200 200 201 202 204 201 199 197 193 189 187 188 191 192 195 199 197 198 199 196 199 201 200 205 204 202 207 202 197 208 218 227 228 227 231 222
194 197 199 202 203 201 201 202 201 202 204 204 201 199 197 194 193 191 193 196 198 201 202 203 204 202 202 205 207 210 210 210 208 203 207 215 217 224 227 223 228 230
193 196 198 199 201 201 202 203 203 202 204 205 203 200 198 198 200 198 195 198 202 203 205 205 205 207 205 205 209 210 215 220 211 205 212 219 218 224 227 219 219 228
192 193 196 198 199 201 203 204 204 204 204 205 205 203 201 200 201 202 200 202 205 206 208 207 205 208 208 208 210 210 215 221 214 208 216 218 216 224 228 220 218 225
194 193 194 197 199 200 203 204 204 204 203 204 205 204 204 204 202 203 204 203 204 207 209 209 207 209 211 210 211 212 214 218 215 210 217 222 220 225 229 226 223 225
196 196 194 196 199 201 203 205 204 204 203 204 206 204 204 207 207 206 204 202 204 206 208 210 209 209 213 214 214 215 216 219 220 215 217 223 226 226 228 227 226 227
196 198 197 197 200 202 204 206 205 204 204 205 208 208 205 205 207 208 204 202 203 205 206 209 211 209 211 215 216 218 219 221 222 221 221 224 227 229 228 227 228 229
199 200 201 201 202 204 204 206 208 206 205 206 210 212 209 204 204 206 206 203 204 206 206 207 211 211 212 215 217 217 219 220 220 221 223 224 227 230 230 229 230 231
202 203 205 205 205 208 207 206 208 210 208 207 209 212 213 208 204 203 206 206 206 207 207 207 209 212 213 215 218 217 217 219 218 218 221 222 224 228 229 230 231 232
203 205 207 208 207 210 211 209 209 211 211 210 209 211 214 213 209 205 205 207 208 208 209 209 209 211 214 216 218 220 219 219 219 219 220 222 224 226 228 229 229 230
205 207 208 210 209 210 213 213 212 211 212 213 211 211 213 215 214 210 206 207 209 209 209 209 208 210 212 214 215 218 220 220 221 221 222 222 223 226 228 229 230 231
208 210 211 211 210 210 212 215 216 213 212 213 214 214 214 216 217 216 212 208 208 210 210 209 210 211 211 212 212 214 217 221 221 223 225 226 226 227 229 231 233 235
215 216 217 215 211 210 210 214 217 216 215 213 213 215 216 215 217 219 217 212 209 209 210 211 212 213 213 212 211 211 214 219 222 223 225 227 229 231 232 233 235 237
231 227 224 220 216 213 212 214 216 219 220 216 214 215 216 215 216 218 220 219 215 212 212 213 215 216 215 214 214 214 214 217 221 224 225 227 229 231 233 235 237 239
235 235 232 225 221 218 216 217 218 220 221 220 218 216 216 216 216 217 219 221 222 220 217 217 219 219 217 217 218 220 219 218 221 225 227 229 229 230 233 235 238 240
239 236 236 232 228 224 220 220 220 220 220 220 220 219 218 218 218 218 219 220 223 226 225 224 225 222 219 219 221 224 225 223 223 226 230 232 232 233 233 235 237 239
262 248 242 238 235 232 227 224 221 219 220 220 219 218 216 217 219 219 219 219 222 226 228 230 231 228 224 222 223 226 229 228 226 227 232 235 235 236 236 236 235 236
298 273 255 244 241 238 234 231 228 224 222 222 221 219 216 215 217 219 218 219 221 223 226 230 232 232 230 228 226 228 231 231 230 230 233 236 238 238 238 238 237 236
325 311 290 265 250 242 236 235 234 231 228 226 225 225 221 218 218 220 220 220 221 222 224 228 230 231 231 230 230 230 230 230 231 231 233 236 239 239 239 239 239 237
324 316 306 291 272 254 242 237 235 233 231 229 229 230 228 224 222 222 222 222 223 222 223 227 229 229 228 229 230 230 229 228 228 228 229 234 238 239 239 239 238 237
319 312 302 293 288 276 262 253 249 246 241 236 233 233 234 232 229 227 225 225 226 226 224 226 229 228 227 227 229 229 228 227 227 225 225 231 235 236 237 237 237 237
320 315 306 294 287 285 288 286 278 274 275 274 267 256 250 248 244 239 235 230 230 231 229 228 230 231 228 227 227 228 228 227 226 224 224 229 232 234 234 235 236 238
320 317 315 309 296 288 292 295 288 284 283 285 289 278 263 258 255 249 246 240 234 233 231 229 230 232 231 229 227 227 228 227 224 221 222 226 228 230 232 233 234 236